{"data":{"norad_id":44499,"intl_designator":"2019-054E","name":"GLOBAL-4","alt_names":[],"object_type":"PAYLOAD","status":"ACTIVE","operator":null,"country":"US","launch_date":"2019-08-19","launch_site_code":"RLLB","launch_vehicle":null,"mission":null,"orbit_class":"UNKNOWN","rcs_meters":null,"size_class":null,"mass_kg":null,"dimensions":null,"purposes":[],"wikipedia_slug":null,"has_3d_model":false,"image_url":null,"decayed_at":null,"tle_current":{"epoch":"2026-09-19T09:47:07.024416Z","epoch_age_seconds":156097,"freshness":"FRESH","line1":"1 44499U 19054E   26262.40772019  .00076371  00000+0  48886-3 0  9997","line2":"2 44499  45.0034  48.6656 0008449 287.9895  72.0085 15.75382191395164","mean_motion":15.75382191,"eccentricity":0.0008449,"inclination_deg":45.0034,"raan_deg":48.6656,"arg_perigee_deg":287.9895,"mean_anomaly_deg":72.0085,"bstar":0.00048886,"rev_number":39516,"period_min":91.406390666759,"perigee_km":337.86468426575,"apogee_km":349.22298053634,"semimajor_km":6721.680832401,"source":"CELESTRAK","updated_at":"2026-09-20T09:00:14.530509Z"}}}